STARLINK-32384 (62146 NORAD) Tracking and Keplerian Element Data

This shows tracking and keplerian element data for the satellite.

Feedback or suggestion? Click here.




ElementValue
Catalog62146
NameSTARLINK-32384
Epoch Orbit1142
Epoch Day35.03021842
Epoch Year2025
RAAN257.0093
Inclination43.0003
Eccentricity0.0001234
Argument of Perigee265.6115
Mean Anonmoly94.4597
Mean Motion15.32086398
Decay Rate-3.39E-06
L11 62146U 24224H 25035.03021842 -.00000339 00000+0 -20094-5 0 9994
L22 62146 43.0003 257.0093 0001234 265.6115 94.4597 15.32086398 11424



Live tracking and technical data element details for STARLINK-32384 (NORAD 62146). STARLINK-32384 can be tracked NOW for your location showing map with azimuth and elevation plus other details from your city location.







IsCatalogInMostPopularTable: catalog: 62146, numindb: 17
Update: records affected: 1



GetName: 62146 STARLINK-32384

Hit Count: updated at: Mon, 19 May 2025 03:05:36 GMT